Wind_Speed
11 10 8 7 5 4 2 2 3 4 5 6 8 8 9 9 8 4 4 6 6 6 7 6 6 1 1 3 5 11 12 9 6 4 2 2 4 2 2 2 2 3 4 5 4 3 3
11 11 10 9 7 6 4 3 3 3 4 5 7 7 7 8 6 3 4 7 6 7 6 6 6 2 3 1 7 13 11 10 8 4 2 2 2 4 6 3 4 4 6 5 3 3 2
13 13 11 11 9 7 5 4 3 3 4 5 6 7 7 6 5 1 5 7 7 7 4 4 3 4 12 5 7 13 11 8 9 5 4 5 3 2 3 5 5 7 3 3 3 2 3
15 14 13 12 11 9 8 6 5 4 4 5 5 6 7 7 5 4 5 6 7 4 5 2 4 1 4 4 5 12 10 4 8 7 9 8 8 6 2 9 4 4 3 4 4 1 2
17 15 14 14 13 11 9 8 6 5 5 4 5 6 6 6 5 4 4 5 6 1 5 2 2 3 4 4 5 11 9 6 6 4 4 3 2 3 4 4 4 4 2 2 4 1 1
19 17 15 14 14 13 11 9 8 6 4 4 5 6 6 5 4 3 4 1 10 4 4 2 4 3 4 4 6 10 8 6 3 1 2 1 2 2 3 4 3 2 2 1 4 3 4
20 19 17 15 15 14 13 11 9 7 5 4 5 6 6 4 3 3 2 1 4 3 12 6 3 2 2 6 3 7 6 5 1 1 2 1 5 3 6 5 4 3 3 4 0 2 5
23 21 19 17 16 15 14 13 11 9 6 5 6 6 5 4 1 1 0 3 2 4 7 5 3 4 3 4 1 11 11 2 2 2 1 4 3 4 2 2 1 1 3 3 1 1 4
26 24 22 20 17 16 15 14 13 10 8 6 7 6 5 5 1 2 3 4 6 3 1 3 3 3 3 5 3 7 9 1 3 3 3 3 5 2 2 1 2 2 3 3 3 8 4
30 27 25 22 19 17 16 16 14 12 10 8 8 7 6 5 3 4 2 7 4 1 4 3 2 2 1 2 2 5 7 4 1 3 4 6 3 1 1 3 4 3 3 1 4 6 4
34 31 28 25 21 19 17 16 15 14 11 9 8 7 7 10 2 3 4 6 3 1 5 3 3 1 1 2 2 4 3 2 3 4 3 4 2 2 1 2 3 3 1 2 3 5 5
38 36 31 28 24 21 19 17 16 15 13 11 9 7 7 5 2 4 10 6 2 3 5 3 1 2 3 2 2 1 1 4 1 2 9 5 2 4 4 2 2 3 3 3 2 2 3
42 41 35 31 27 24 21 19 17 16 14 12 11 10 9 7 2 9 9 3 4 5 2 3 1 1 1 2 2 1 1 2 2 2 4 4 3 3 2 2 3 3 4 2 3 3 1
31 39 38 35 30 26 22 21 19 17 16 14 12 10 8 5 8 11 3 4 8 1 4 3 3 3 2 1 2 1 2 2 1 2 1 3 4 2 4 4 3 3 3 2 4 3 5
30 41 39 37 33 29 26 22 21 19 17 15 13 10 5 5 9 8 4 6 4 3 6 10 4 4 4 3 2 4 2 1 3 4 2 2 3 3 4 2 4 3 0 2 3 2 3
30 28 32 35 38 33 30 27 24 21 21 19 11 6 4 5 8 3 4 7 3 2 5 7 9 5 5 7 5 5 6 2 3 1 2 2 1 1 2 2 3 2 1 3 4 4 5
25 33 28 27 28 36 34 31 29 28 25 23 8 3 1 6 6 3 4 6 3 3 2 6 6 5 5 5 6 4 3 2 1 3 1 1 0 3 2 3 2 3 2 0 1 2 3
26 26 34 29 28 29 31 35 34 31 30 24 6 2 2 8 3 2 6 3 5 6 2 2 1 1 7 7 5 5 4 4 2 2 3 2 2 2 3 2 2 3 1 3 3 4 3
28 27 29 30 31 30 35 38 39 38 40 19 4 2 3 2 4 3 1 2 3 5 5 6 5 1 1 5 4 3 4 2 2 1 2 3 2 2 4 2 2 5 5 2 2 1 8
30 30 29 32 31 34 37 44 44 44 44 23 4 4 1 1 1 3 5 6 6 1 5 3 4 3 4 3 2 5 5 2 2 2 4 1 1 4 7 2 3 4 7 10 7 5 9
26 27 27 32 34 32 42 50 49 50 52 23 4 4 5 6 7 4 5 8 8 6 2 6 2 6 5 4 4 5 5 5 4 3 2 1 4 3 10 5 5 7 12 13 17 18 12
27 27 27 33 33 32 36 49 54 54 51 11 5 5 1 2 7 10 6 6 10 5 8 5 4 10 6 4 3 7 7 6 3 5 4 1 1 1 4 6 4 7 15 17 21 19 18
27 28 28 30 33 30 32 44 60 59 47 6 4 2 3 6 5 10 7 6 10 12 0 5 5 5 4 3 7 8 9 7 5 6 7 5 5 2 4 1 5 9 17 17 8 8 10
24 26 30 33 27 24 30 43 61 62 48 10 9 7 3 3 4 8 7 4 10 6 8 3 4 3 4 16 15 9 11 11 9 8 6 5 4 2 4 2 6 1 1 1 11 7 13
21 25 34 31 24 20 18 37 57 46 21 12 14 5 3 3 3 4 8 7 11 8 5 5 5 3 17 4 2 1 2 1 3 5 4 4 4 3 4 5 12 7 4 5 5 2 6
23 26 30 28 24 20 23 47 57 46 22 15 10 12 5 6 5 6 5 8 5 5 4 4 5 6 0 2 2 4 5 1 3 2 3 1 2 3 3 5 6 4 4 1 1 7 2
26 25 24 28 27 25 28 37 41 44 30 16 8 12 6 4 2 2 3 4 5 4 5 5 6 3 2 3 4 5 4 1 3 6 6 4 3 11 11 7 9 5 9 4 3 3 4
26 26 25 27 29 31 32 35 41 41 32 18 9 8 5 4 3 7 6 2 2 4 5 8 5 2 3 6 5 4 5 5 3 3 6 8 8 6 6 7 11 8 6 7 3 3 4
25 26 28 31 31 33 35 37 44 37 32 16 8 11 15 11 4 7 12 8 4 3 3 7 2 5 5 4 2 3 3 3 3 3 1 4 5 3 9 5 3 8 3 4 2 3 2
Wind_Direction
218 216 211 205 197 196 165 139 130 129 131 131 132 133 134 136 131 105 53 14 4 360 357 359 357 346 347 106 34 337 353 6 358 351 9 312 224 207 190 93 123 87 114 83 86 70 45
223 221 214 211 204 202 187 172 156 148 152 155 153 152 154 150 147 115 21 5 2 351 349 0 6 111 274 232 342 342 355 3 11 5 38 333 13 78 99 60 7 88 95 97 73 84 94
220 221 218 213 210 205 201 188 176 168 171 175 172 173 178 181 187 238 338 347 347 349 356 1 15 88 59 55 354 355 353 0 6 11 87 53 46 318 138 115 117 138 95 128 74 32 27
223 217 219 217 212 208 205 198 192 192 188 189 191 191 198 205 226 270 317 332 333 350 358 357 50 65 73 353 3 3 7 27 27 54 73 63 74 86 37 117 142 212 233 231 107 135 100
227 221 217 217 215 210 210 206 205 201 199 203 200 198 206 213 232 264 312 335 343 48 25 43 28 283 83 360 15 356 8 351 345 46 54 46 54 92 156 213 193 201 264 242 145 115 298
230 225 220 216 217 214 211 211 211 211 204 210 204 196 201 207 225 270 306 158 55 28 354 354 58 144 57 2 332 339 344 352 352 315 173 232 199 195 198 233 319 77 244 197 297 87 249
232 227 223 217 216 216 214 211 213 212 210 207 194 195 189 198 226 279 322 251 224 173 43 55 29 66 48 330 357 7 352 336 228 246 245 114 237 41 38 11 5 2 315 298 33 41 296
232 228 223 219 214 213 214 214 211 212 212 206 194 187 186 186 235 231 110 279 33 95 96 51 61 80 33 346 260 25 357 260 231 140 228 206 55 40 20 11 343 310 302 295 101 21 290
230 229 225 220 215 212 212 215 214 209 208 208 198 188 189 184 167 73 121 125 126 96 294 78 40 21 360 341 45 2 353 331 70 100 55 29 73 13 319 69 314 68 334 358 313 316 256
231 230 227 222 216 212 210 213 213 210 206 201 197 198 197 180 163 161 125 152 139 45 249 120 134 74 323 339 78 3 7 340 84 116 68 74 70 58 115 87 332 256 40 320 306 321 312
228 230 227 224 218 213 209 209 210 210 207 200 196 197 198 182 167 196 155 159 140 213 290 89 107 37 25 0 3 57 3 279 50 96 260 83 73 71 136 58 334 65 319 315 299 280 318
227 227 225 224 220 215 209 207 207 208 206 203 200 188 172 188 195 180 155 145 167 230 252 121 119 147 184 57 74 356 105 81 56 103 56 86 62 12 38 69 20 118 251 241 244 246 239
225 223 222 222 219 217 211 206 206 205 204 202 199 191 181 175 141 167 151 193 238 233 98 143 159 200 120 98 102 8 131 141 278 198 182 148 80 96 355 231 166 231 276 256 205 204 352
235 231 220 219 218 215 213 206 203 201 200 197 190 186 195 205 165 157 196 219 236 15 190 126 139 142 255 160 114 115 193 195 121 274 234 218 186 25 10 30 359 0 333 330 279 296 334
232 234 229 214 215 212 210 206 202 196 195 182 171 158 135 166 168 159 236 212 249 167 139 156 139 208 174 180 257 200 220 180 57 8 278 274 127 118 60 10 336 58 198 45 301 236 261
233 235 233 228 220 214 213 207 201 196 188 172 155 136 98 158 163 109 261 236 206 121 128 173 203 206 205 179 203 207 177 80 124 34 356 53 246 21 91 206 81 343 58 202 178 291 284
235 228 228 227 234 224 212 211 202 195 184 171 145 131 88 140 136 64 236 217 147 158 168 197 205 169 223 176 230 205 135 106 123 131 351 124 300 117 220 199 104 153 175 142 321 270 283
229 233 226 231 236 235 225 213 201 193 176 168 131 169 15 152 102 186 246 203 103 166 163 157 209 163 190 172 188 216 202 55 63 158 141 76 77 261 25 75 344 300 240 229 242 174 229
237 231 230 222 227 229 227 218 206 193 178 153 112 98 12 70 169 208 310 198 159 151 183 178 160 177 137 164 156 170 130 77 92 215 153 160 139 279 182 150 185 231 190 152 100 266 240
236 234 233 232 229 228 224 215 213 201 184 159 135 144 75 21 312 240 176 201 167 78 151 149 124 118 133 142 89 157 144 128 84 95 45 115 156 241 262 19 89 195 210 209 202 229 261
231 232 234 237 230 223 226 205 213 202 188 175 178 180 172 176 217 212 192 178 167 173 186 168 133 207 158 135 151 173 145 139 148 135 118 212 232 246 274 286 232 251 250 223 218 231 249
234 236 236 235 229 220 223 208 207 204 189 178 148 144 133 134 178 169 163 210 186 151 154 191 214 182 174 157 191 178 139 173 181 167 157 61 197 92 273 248 199 253 251 244 248 254 255
235 237 242 226 219 215 217 215 204 198 178 149 139 107 124 151 141 171 185 177 192 138 96 40 142 131 163 115 85 81 71 64 85 150 164 172 159 173 266 74 294 267 240 226 215 210 220
233 237 223 210 207 207 210 203 200 196 185 157 172 131 116 150 173 184 149 139 168 184 136 80 104 107 113 115 107 83 63 66 58 42 24 148 175 192 281 252 244 336 102 0 224 230 217
229 224 202 186 190 195 198 201 188 177 191 169 153 147 125 113 126 109 142 117 103 74 77 79 44 34 145 136 117 155 133 135 53 38 15 360 193 217 256 239 298 272 195 188 186 274 247
217 198 195 189 188 185 178 183 177 176 175 149 136 116 105 128 200 114 126 168 142 118 99 80 67 118 349 184 152 216 227 138 182 115 49 7 331 234 147 245 259 83 129 119 156 270 45
214 211 193 189 186 177 173 177 177 180 187 185 143 134 116 108 48 340 129 163 118 112 102 132 155 169 317 151 184 214 222 2 210 185 165 154 194 221 222 252 276 102 136 151 193 312 102
200 201 192 190 185 178 175 173 177 178 181 174 133 147 115 91 63 17 29 111 122 170 148 144 125 196 159 198 207 192 219 185 207 125 181 177 169 193 202 231 263 141 120 202 82 97 132
195 196 195 189 185 181 179 173 174 178 172 155 112 122 111 76 86 87 86 59 30 352 105 180 9 149 159 176 192 131 176 159 214 236 206 219 228 199 204 223 74 185 68 123 112 110 165
Height
826 826 826 826 826 827 826 825 825 824 824 824 823 823 823 824 825 825 825 824 823 822 821 820 818 818 818 817 825 823 820 817 816 816 815 812 809 809 810 814 816 817 830 836 839 839 837
825 825 825 825 826 827 826 826 825 825 825 825 824 824 825 825 826 826 826 825 824 823 821 820 819 818 819 818 828 825 822 820 819 817 816 814 811 812 818 822 821 827 830 836 839 840 842
822 823 824 824 825 826 826 826 826 826 826 825 825 825 826 826 827 826 826 825 824 823 821 820 819 820 820 830 829 826 824 823 821 820 818 819 818 815 818 826 829 829 829 833 836 838 839
821 821 822 823 823 824 825 825 825 826 826 825 825 825 826 827 827 827 826 825 824 823 822 821 820 820 827 830 829 828 826 825 824 822 821 821 821 822 822 828 829 825 824 818 836 838 842
819 819 819 821 822 822 823 824 825 825 825 825 825 825 826 826 827 827 826 825 823 823 822 821 822 820 828 830 831 830 829 828 826 824 823 823 822 824 829 821 820 822 809 818 830 839 839
816 817 817 818 819 820 821 823 824 825 825 825 825 825 825 826 826 827 826 825 824 823 823 823 823 824 832 835 834 832 830 829 827 825 824 822 821 819 819 818 814 811 816 825 825 839 840
813 814 814 815 816 818 820 821 823 824 824 824 825 825 825 826 826 827 826 827 827 825 828 834 836 833 835 837 834 833 831 830 826 823 821 825 820 818 831 836 835 831 831 829 826 843 845
809 810 811 812 813 815 817 820 821 822 823 824 825 825 825 826 826 826 826 825 826 828 835 839 838 837 838 839 833 834 833 828 825 825 827 825 824 845 845 842 838 836 836 829 836 847 846
805 807 808 810 810 812 814 817 819 820 822 823 824 825 826 826 827 827 826 827 827 827 824 838 840 838 840 840 838 838 837 833 828 829 826 826 846 851 848 844 842 839 842 842 849 843 840
800 803 805 806 807 809 810 814 817 819 820 822 823 824 825 827 830 827 827 826 827 828 819 834 835 840 841 841 839 843 842 840 834 834 835 842 852 850 846 850 853 839 856 856 853 845 826
792 798 801 803 804 806 807 810 814 817 819 820 822 823 824 827 826 826 828 826 827 830 825 839 837 842 842 839 842 841 844 837 835 841 843 852 851 849 845 859 860 857 861 858 855 847 849
785 791 795 798 800 802 804 807 810 814 817 819 820 822 823 826 827 826 825 826 829 822 827 834 837 836 837 839 840 840 840 841 844 841 845 857 864 861 861 866 865 864 858 856 855 847 845
777 783 788 793 796 799 801 803 807 811 814 817 819 821 824 824 825 826 826 828 821 821 830 832 834 835 834 838 839 839 837 836 834 836 832 852 858 867 868 858 862 861 845 829 829 838 817
773 775 779 785 791 795 798 800 804 807 812 815 818 820 822 823 824 826 828 822 824 811 814 833 833 837 831 838 840 840 838 833 844 840 830 830 837 862 870 867 863 854 852 843 840 820 818
766 767 772 777 784 788 793 796 801 803 810 814 817 819 822 824 826 827 825 822 806 804 813 825 835 830 831 840 839 836 834 833 844 847 838 831 842 873 875 872 871 858 847 867 867 861 848
760 764 768 770 776 780 786 791 796 800 808 813 816 820 823 825 827 829 826 810 808 815 819 818 813 818 816 831 836 834 831 846 850 854 853 850 842 871 877 874 873 868 873 855 857 847 833
754 761 763 766 770 773 779 784 790 797 805 811 816 820 825 825 829 831 827 806 814 821 820 818 811 820 817 827 828 826 826 854 852 854 852 848 846 866 875 866 854 870 865 875 877 866 840
751 755 756 760 765 769 774 779 785 793 802 810 814 820 826 826 834 833 823 809 819 824 825 824 820 818 819 824 829 827 830 843 858 856 850 861 860 844 851 882 884 877 865 864 850 855 854
746 750 753 755 759 763 768 773 779 786 795 802 814 825 826 824 828 834 824 821 818 823 823 825 824 824 831 827 840 833 842 866 864 861 856 861 854 842 851 880 881 873 871 883 888 878 853
739 743 745 752 753 756 760 764 770 778 788 795 810 819 829 828 827 818 814 814 819 826 821 824 829 831 833 836 846 852 850 866 868 867 873 869 868 852 832 849 858 869 867 872 872 860 833
733 735 738 746 746 749 753 756 760 768 775 788 794 799 804 820 822 817 812 814 813 822 824 825 832 827 833 847 844 844 847 866 868 873 871 869 866 864 859 865 871 866 858 857 862 847 842
725 729 731 737 739 742 745 749 755 761 772 779 786 793 804 807 798 815 818 820 808 821 823 824 828 824 832 838 831 841 850 855 851 872 871 885 867 887 875 861 878 883 872 865 853 847 846
719 722 723 728 731 735 738 742 747 754 764 769 777 782 783 803 805 805 810 807 806 815 829 828 828 832 840 840 850 860 863 867 864 864 870 878 876 877 848 879 880 864 850 844 842 846 843
712 715 717 720 725 728 730 735 740 747 756 759 766 771 782 796 800 795 799 804 805 809 824 836 831 834 858 857 860 865 872 879 882 886 881 878 875 867 855 875 847 828 855 852 836 833 837
707 708 709 714 720 723 724 727 736 751 755 757 759 764 776 791 794 799 802 809 819 827 834 840 852 854 856 857 849 854 859 870 888 895 893 889 868 861 861 843 819 813 854 852 846 825 838
703 705 707 711 716 719 721 726 730 744 753 757 761 762 769 784 795 796 802 807 812 824 839 855 861 859 859 847 844 842 830 836 866 889 895 893 888 868 883 861 821 824 852 863 860 830 857
700 704 705 709 713 717 720 724 733 741 751 756 761 764 770 785 802 802 800 804 809 818 833 851 857 859 861 842 838 836 831 873 843 855 881 883 879 867 857 855 826 843 856 866 838 825 866
698 701 705 709 713 718 721 724 732 741 750 756 761 765 768 787 808 808 810 810 815 813 815 845 846 854 853 842 831 828 834 851 853 857 865 860 861 863 858 852 840 852 865 840 852 867 867
693 699 704 708 713 716 721 723 731 737 747 755 763 768 769 780 813 816 817 820 823 823 821 834 827 829 829 827 835 839 842 861 838 826 869 849 832 828 833 819 847 851 856 864 864 862 866